www.pogodaiklimat.ru

ПОГОДА в Черри Пойнте, NC

  • Прогноз погоды в Черри Пойнте
  • Монитор погоды в Черри Пойнте
  • Климат в Черри Пойнте

АРХИВ ПОГОДЫ в Черри Пойнте

Время (UTC), дата Ветер
(напр.,м/с)
 
Видим.   Явления Облачность Т
(С)
Тd
(С)
f
(%)
Тe
(С)
Тes
(С)
Комфортность

P
(гПа)

Po
(гПа)
Тmin
(С)
Tmax
(С)
R
(мм)
SD
(см)
06:54 23.03 СЗ  16 км    ясно  +8.9  -2.8  44  +5  +5    1017.0  1016.2         
07:54 23.03 СЗ  16 км    ясно  +7.8  -2.8  47  +5  +5    1017.8  1017.2         
08:54 23.03 З  16 км    ясно  +6.7  -2.8  51  +6  +6    1018.6  1017.9         
09:54 23.03 ЮЗ  16 км    ясно  +1.7  -1.1  82  -2  -2    1019.7  1018.9         
10:54 23.03 З  16 км    ясно  +6.1  -1.1  60  +3  +3    1020.7  1019.9  +0.6  +9.4     
11:54 23.03 СЗ  16 км    ясно  +9.4  -2.2  44  +6  +6    1021.5  1020.9         
12:54 23.03 СЗ  8
{11} 
16 км    ясно  +11.7  -2.2  38  +9  +9    1022.1  1021.3         
13:54 23.03 СЗ  16 км    ясно  +13.3  -2.8  33  +11  +13    1022.6  1021.9         
14:54 23.03 С  16 км    ясно  +14.4  -2.8  30  +12  +14    1022.5  1021.9         
15:54 23.03 СЗ  5
{10} 
16 км    ясно  +15.0  -3.3  28  +14  +19    1022.3  1021.6         
16:54 23.03 СЗ  6
{10} 
16 км    ясно  +16.1  -3.9  25  +15  +19    1022.0  1021.3  +6.1  +16.1     
17:54 23.03 СЗ  4
{9} 
16 км    ясно  +17.2  -3.3  24  +17  +25    1021.6  1020.9         
18:54 23.03 СЗ  8
{10} 
16 км    ясно  +17.8  -3.3  24  +17  +18    1021.7  1020.9         
19:54 23.03 СЗ  16 км    ясно  +17.8  -3.3  24  +17  +22    1021.6  1020.9         
20:54 23.03 СЗ  16 км    ясно  +17.2  -3.9  23  +16  +18    1022.0  1021.3         
21:54 23.03 СЗ  16 км    ясно  +16.1  -4.4  24  +15  +16    1022.9  1022.3         
22:54 23.03 З  16 км    ясно  +14.4  -4.4  27  +14  +14    1023.9  1023.3  +14.4  +17.8     
23:54 23.03   16 км    ясно  +9.4  +0.6  54  +9  +9    1025.0  1024.3         
00:54 24.03   16 км    ясно  +8.3  +2.2  65  +8  +8    1025.5  1025.0         
01:54 24.03   16 км    ясно  +6.1  +1.1  70  +5  +5    1025.7  1025.0         
02:54 24.03   16 км    ясно  +5.0  +1.0  75  +4  +4    1026.0  1025.3         
03:54 24.03   16 км    ясно  +4.4  +1.7  83  +3  +3    1026.2  1025.7         
04:54 24.03   16 км    ясно  +3.3  +0.6  82  +2  +2    1026.2  1025.7  +3.3  +14.4     
05:54 24.03 В  н/о    ясно  +2.8  +1.1  89  0  0    1025.8  1025.0         
06:54 24.03   16 км    ясно  +2.2  +0.6  89  +1  +1    1026.1  1025.3         
07:54 24.03   16 км    ясно  +2.8  +1.1  89  +2  +2    1025.9  1025.3         
08:54 24.03   н/о    ясно  +2.0  +1.0  93  +1  +1    1026.3  1025.7         
09:54 24.03   н/о    ясно  +1.7  +0.6  92  +1  +1    1026.9  1026.3         
10:54 24.03   16 км    ясно  +3.3  +2.2  92  +2  +2    1027.8  1027.0  +0.6  +3.3     
11:54 24.03   16 км    ясно  +8.9  +6.7  86  +8  +9    1028.1  1027.4         
12:54 24.03 ЮВ  16 км    ясно  +14.4  +2.2  44  +14  +17    1028.0  1027.4         
13:54 24.03 З  н/о    ясно  +16.7  +3.9  42  +17  +25    1027.7  1027.0         
14:54 24.03 нст  16 км    ясно  +17.8  +3.9  40  +18  +28    1027.4  1026.7         
15:54 24.03 ЮЗ  4
{8} 
н/о    ясно  +18.0  +2.0  34  +18  +27    1026.9  1026.3         
16:54 24.03 ЮЗ  16 км    ясно  +19.4  +1.7  31  +19  +27    1026.3  1025.7  +2.8  +19.4     
17:54 24.03 Ю  7
{9} 
16 км    ясно  +20.0  +0.6  27  +20  +23    1025.4  1024.6         
18:54 24.03 Ю  16 км    ясно  +20.0  -0.6  25  +20  +23    1024.6  1024.0         
19:54 24.03 ЮЗ  5
{9} 
16 км    ясно  +19.4  0.0  27  +19  +22    1024.0  1023.3         
20:54 24.03 Ю  6
{10} 
16 км    ясно  +18.3  +2.8  36  +18  +19    1023.5  1022.6         
21:54 24.03 Ю  16 км    ясно  +16.7  +3.9  42  +16  +17    1023.0  1022.3         
22:54 24.03 Ю  16 км    ясно  +14.4  +5.0  53  +14  +14    1023.1  1022.3  +13.9  +20.0     
23:54 24.03 Ю  16 км    ясно  +12.8  +6.1  64  +12  +12    1023.4  1022.6         
00:54 25.03   16 км    ясно  +10.6  +6.1  74  +10  +10    1023.3  1022.6         
01:54 25.03 ЮВ  16 км    ясно  +10.0  +7.2  83  +8  +8    1022.8  1022.3         
02:54 25.03   16 км    ясно  +10.6  +8.3  86  +10  +10    1022.6  1021.9         
03:54 25.03 Ю  16 км    ясно  +13.9  +10.0  77  +13  +13    1022.3  1021.6         
04:54 25.03 Ю  н/о    ясно  +13.9  +10.0  77  +13  +13    1021.6  1020.9  +9.4  +14.4     
05:54 25.03 Ю  16 км    ясно  +12.8  +10.0  83  +12  +12    1021.0  1020.2         

 

Местоположение метеостанции Marine Corps Air Station: широта 34.8972 долгота -76.8814 высота над уровнем моря 8 м.

В архиве по умолчанию представлена погода в Черри Пойнте за последние 1-2 суток. Обновление информации о фактической погоде в базе происходит ежечасно! Архивные данные за месяц целиком и за предыдущие месяцы Вы можете получить, выбрав интересующий диапазон дат из раскрывающегося списка и нажав кнопку "Ввод!".

Внимание! Архив погоды МЕТАР в базе сайта хранится не более 60 дней. Нет смысла пытаться выбрать более раннюю дату.

Внимание! Время в таблицах - всемирное. Для получения местного времени необходимо прибавить поправку, которая в Черри Пойнте равна -5 ч.

Ветер - указаны скорость ветра в м/с и направление, откуда дует ветер: С - северный, СВ - северо-восточный, В - восточный, ЮВ - юго-восточный, Ю - южный, ЮЗ - юго-западный, З - западный, СЗ - северо-западный.
Видимость - горизонтальная дальность видимости в метрах или километрах. При видимости от 1 до 10 км при отсутствии осадков обычно наблюдается дымка, при ухудшении видимости до 1 км и менее - туман. В сухую погоду видимость может ухудшаться дымом, пылью или мглою.
Атмосферные явления - указаны явления, наблюдавшиеся в указанный момент времени.
Облачность - указаны через наклонную черту верхняя и нижняя облачность в баллах и высота нижней границы облаков в метрах. Внимание: облачность, как и прочие метеорологические величины в США измеряются автоматическими метеостанциями. Указанные значения в баллах носят условный характер и показывают процент времени, в течение которого, в среднем, лазерный луч высотомера отражался от облаков обратно.
T - Температура воздуха - температура, измеренная на высоте 2 м над землей.
Td - Температура точки росы - температура, при понижении до которой содержащийся в воздухе водяной пар достигнет насыщения.
f - Относительная влажность воздуха - влажноcть воздуха, измеренная на высоте 2 м над землей.
Te - Эффективная температура - температура, которую ощущает одетый по сезону человек в тени. Характеристика душности погоды. При расчете учитывается влияние влажности воздуха и скорости ветра на теплоощущения человека.
Tes - Эффективная температура на солнце - температура, которую ощущает человек, с поправкой на солнечный нагрев. Характеристика знойности погоды. Зависит от высоты солнца над горизонтом, облачности и скорости ветра. Ночью, в пасмурную погоду, а также при ветре 12 м/с и более поправка равна нулю.
P - Атмосферное давление - приведенное к уровню моря атмосферное давление.
Po - Атмосферное давление - измеренное на уровне метеостанции атмосферное давление.
Tmin - Минимальная температура - минимум температуры воздуха на высоте 2 м над землей.
Tmax - Максимальная температура - максимум температуры воздуха на высоте 2 м над землей.
R - Количество осадков - Количество выпавших осадков за 3 или 6 часов, мм.
SD - Снежный покров - Высота снежного покрова, см.